Flag for Chile Weather past 2 weeks in Temuco, Chile

Now
63 °F

Passing clouds.


Feels Like: 63 °F
Forecast: 47 / 79 °F
Wind: 9 mph from Southwest

Location: Concepcion Airport

Current Time: Dec 27, 2014 at 9:26:33 PM

Latest Report: Dec 27, 2014 at 9:00 PM


Visibility: N/A

Pressure: 30.01 "Hg

Humidity: 83%

Dew point: 57 °F

Location of TemucoLocation

Historic Weather in Temuco — Graph

°F

Temuco temperature yesterday

Maximum temperature yesterday: 72 °F (at 2:00 PM)
Minimum temperature yesterday: 50 °F (at 6:00 AM)
Average temperature yesterday: 62 °F

Past Weeks' High & Low Weather Summary

 TemperatureHumidityPressure
High75 °F (Dec 23, 3:00 PM)100% (Dec 19, 9:00 PM)30.27 "Hg (Dec 19, 9:00 PM)
Low45 °F (Dec 21, 7:00 AM)36% (Dec 23, 12:00 PM)29.86 "Hg (Dec 23, 6:00 PM)
Average60 °F69%30.03 "Hg
* Reported Dec 12 8:00 PM — Dec 27 8:00 PM, Temuco, Weather by CustomWeather, © 2014

Note: Actual official high and low records may vary slightly from our data, if they occured in-between our weather recording intervals... More about our weather records

Advertising

Temuco weather history for previous 24 hours

 ConditionsComfort  
Time TempWeatherWind HumidityBarometerVisibility
8:00 PM
Dec 27
66 °FPassing clouds.12 mph73%30.01 "HgN/A
7:00 PM66 °FPassing clouds.12 mph73%30.01 "HgN/A
6:00 PM68 °FSunny.15 mph69%30.01 "Hg10 mi
5:00 PM68 °FSunny.15 mph64%30.01 "Hg10 mi
4:00 PM70 °FPassing clouds.13 mph60%30.01 "HgN/A
3:00 PM70 °FSunny.10 mph60%30.01 "Hg10 mi
2:00 PM70 °FSunny.5 mph57%30.01 "Hg10 mi
1:00 PM68 °FPassing clouds.8 mph60%30.01 "HgN/A
12:00 PM66 °FPassing clouds.7 mph68%30.01 "HgN/A
11:00 AM64 °FPassing clouds.8 mph68%29.98 "HgN/A
10:00 AM63 °FPartly sunny.9 mph73%29.98 "HgN/A
9:00 AM61 °FPassing clouds.9 mph77%29.98 "HgN/A
8:00 AM57 °FScattered clouds.7 mph88%29.95 "HgN/A
7:00 AM55 °FScattered clouds.7 mph94%29.92 "HgN/A
6:00 AM57 °FClear.10 mph88%29.92 "Hg10 mi
5:00 AM57 °FClear.12 mph88%29.89 "Hg10 mi
4:00 AM57 °FClear.12 mph88%29.89 "Hg10 mi
3:00 AM57 °FClear.6 mph88%29.92 "Hg10 mi
2:00 AM57 °FClear.5 mph88%29.92 "Hg10 mi
1:00 AM59 °FClear.8 mph82%29.95 "Hg10 mi
12:00 AM59 °FClear.10 mph82%29.95 "Hg10 mi
11:00 PM
Dec 26
61 °FClear.14 mph77%29.95 "Hg10 mi
10:00 PM63 °FClear.9 mph77%29.98 "Hg10 mi
9:00 PM64 °FSunny.10 mph73%29.98 "Hg10 mi
Weather by CustomWeather, © 2014

See weather overviewHow to use our weather pages